[[{"header":{"parameterUnit":"m.s-1","parameterCategory":1,"la1":30.2991,"la2":30.254,"lo1":-89.0895,"lo2":-89.0444,"dy":0.0017,"dx":0.0017,"nx":28,"ny":28,"refTime":"2023-07-27T09:00:00:Z","depth":0,"parameterNumber":2,"parameterNumberName":"U-component_of_WINDS"},"data":[0,0,0,0,0,0,0,0,0,0,0,0,0,0,0,0,0,0,0,0,0,0,0,0,0,0,0,0,0,0,0,0,0,0,0,0,0,0,0,0,0,0,0,0,0,0,0,0,0,0,0,0,0,0,0,0,0,0,-0.8263,-0.8262,0,-0.8138,-0.8137,-0.8136,-0.806,-0.8059,-0.8059,-0.8059,-0.7929,-0.7926,-0.7923,0,0,0,0,0,0,0,0,0,0,0,0,0,-0.8435,-0.8432,-0.8263,-0.8261,-0.826,-0.8139,-0.8137,-0.8135,-0.806,-0.8059,-0.8059,-0.8058,-0.793,-0.7927,-0.7923,0,0,0,0,0,0,0,0,0,0,0,0,0,-0.834,-0.8431,-0.8263,-0.8208,-0.8201,-0.8139,-0.8137,-0.8135,-0.806,-0.8059,-0.8059,-0.8058,-0.7931,-0.7927,-0.7922,-0.7905,0,0,-0.7908,-0.7906,0,0,0,0,0,0,0,0,-0.8346,-0.8334,-0.8217,-0.8211,-0.8204,-0.8114,-0.815,-0.8058,-0.806,-0.8114,-0.8059,-0.8058,-0.7991,-0.7981,-0.7959,-0.7899,-0.7893,-0.7908,-0.7905,-0.7903,-0.7902,0,0,0,0,0,0,0,-0.8353,-0.8339,-0.8214,-0.8216,-0.8208,-0.8189,-0.8175,-0.8132,-0.8057,-0.8109,-0.8103,-0.8089,-0.7987,-0.7964,-0.7956,-0.7891,-0.7908,-0.7904,-0.7901,-0.7899,-0.7811,-0.7812,0,0,0,0,0,0,-0.8368,-0.8345,-0.8218,-0.821,-0.8275,-0.8186,-0.817,-0.8144,-0.8057,-0.8043,-0.809,-0.8086,-0.7972,-0.7961,-0.7951,-0.7925,-0.7903,-0.7898,-0.7896,-0.7811,-0.7811,-0.7812,0,0,0,0,0,0,-0.8372,-0.8357,-0.8223,-0.8276,-0.8257,-0.8184,-0.8154,-0.8141,-0.8118,-0.8043,-0.8029,-0.808,-0.7971,-0.7957,-0.7917,-0.7919,-0.7896,-0.7892,-0.781,-0.7811,-0.7812,-0.7873,0,0,0,0,0,0,-0.8377,-0.8359,-0.8352,-0.8276,-0.8255,-0.8191,-0.8154,-0.8139,-0.811,-0.8104,-0.803,-0.8017,-0.797,-0.7925,-0.7913,-0.7912,-0.7889,-0.781,-0.7811,-0.7811,-0.787,-0.7876,-0.788,0,0,0,0,0,-0.8384,-0.8373,-0.8352,-0.8337,-0.8244,-0.8192,-0.8179,-0.8126,-0.8111,-0.8103,-0.8055,-0.8019,-0.7922,-0.7921,-0.7907,-0.7906,-0.7809,-0.781,-0.7811,-0.7868,-0.7875,-0.788,0,0,0,0,0,0,-0.845,-0.8362,-0.8337,-0.8302,-0.8255,-0.8179,-0.8167,-0.8134,-0.8089,-0.8085,-0.8021,-0.8004,-0.7971,-0.7934,-0.7935,-0.7885,-0.7861,-0.786,-0.791,-0.7915,-0.792,-0.7929,-0.7885,0,0,0,0,0,-0.8461,-0.8426,-0.8351,-0.8327,-0.8305,-0.8241,-0.8216,-0.8179,-0.8127,-0.8106,-0.8055,-0.8006,-0.7964,-0.7938,-0.7895,-0.7865,-0.7848,-0.7858,-0.7863,-0.7867,-0.7866,-0.7848,-0.7852,-0.7815,-0.7815,-0.7815,0,0,-0.8482,-0.843,-0.8412,-0.834,-0.8298,-0.8264,-0.8224,-0.8189,-0.8162,-0.81,-0.8059,-0.8021,-0.7962,-0.7927,-0.7909,-0.7896,-0.7873,-0.7868,-0.7872,-0.7869,-0.785,-0.7853,-0.7856,-0.7816,-0.7816,-0.7816,0,0,-0.8503,-0.846,-0.8436,-0.8396,-0.8335,-0.8293,-0.8287,-0.8216,-0.8189,-0.8147,-0.81,-0.8068,-0.7997,-0.7957,-0.7928,-0.7936,-0.7902,-0.7924,-0.7949,-0.7933,-0.7936,-0.7938,-0.7941,-0.7943,-0.7924,-0.7924,-0.7924,0,-0.8537,-0.8483,-0.8428,-0.8395,-0.8365,-0.831,-0.8285,-0.8249,-0.8177,-0.8157,-0.8144,-0.8055,-0.8011,-0.7966,-0.7969,-0.7947,-0.7938,-0.7932,-0.794,-0.7942,-0.7943,-0.7945,-0.7946,-0.7927,-0.7927,-0.7926,-0.7926,0,-0.8528,-0.8491,-0.8479,-0.8412,-0.8381,-0.8353,-0.8293,-0.8268,-0.8235,-0.8194,-0.8153,-0.8099,-0.8045,-0.8032,-0.7998,-0.7983,-0.7977,-0.7953,-0.7927,-0.795,-0.7951,-0.7952,-0.7931,-0.793,-0.7929,-0.7929,0,0,-0.8585,-0.8489,-0.8486,-0.8455,-0.8385,-0.8355,-0.8326,-0.8273,-0.8253,-0.8206,-0.8179,-0.8122,-0.81,-0.8066,-0.8028,-0.8014,-0.8025,-0.7991,-0.7989,-0.7999,-0.8005,-0.8023,-0.8025,-0.8002,-0.8002,-0.8002,-0.801,0,-0.8595,-0.8538,-0.8488,-0.845,-0.8416,-0.8363,-0.8337,-0.8291,-0.8253,-0.8218,-0.8176,-0.8136,-0.811,-0.8089,-0.8073,-0.8027,-0.8025,-0.8026,-0.7976,-0.7975,-0.7992,-0.8025,-0.8044,-0.8054,-0.801,-0.801,-0.801,0,-0.8598,-0.8555,-0.8513,-0.8448,-0.8431,-0.8409,-0.8358,-0.8326,-0.8273,-0.8246,-0.821,-0.8171,-0.8137,-0.8117,-0.8069,-0.8071,-0.8048,-0.8023,-0.8022,-0.8014,-0.7993,-0.8018,-0.8055,-0.8057,-0.801,-0.801,-0.801,0,-0.8644,-0.8575,-0.8541,-0.8517,-0.8439,-0.8425,-0.8392,-0.8339,-0.8311,-0.8267,-0.8249,-0.8201,-0.8175,-0.8139,-0.8088,-0.8078,-0.8046,-0.8021,-0.8022,-0.8023,-0.8016,-0.8017,-0.805,-0.8003,-0.8003,-0.8003,-0.8003,0,-0.866,-0.8636,-0.8561,-0.854,-0.8512,-0.8456,-0.843,-0.8393,-0.8347,-0.8318,-0.827,-0.8244,-0.8178,-0.8145,-0.8105,-0.8071,-0.806,-0.8037,-0.8027,-0.8041,-0.8044,-0.8024,-0.8022,-0.8003,-0.8003,-0.8003,-0.8003,0,-0.8706,-0.8654,-0.8614,-0.8545,-0.8527,-0.851,-0.845,-0.8428,-0.8388,-0.8353,-0.8341,-0.8278,-0.8236,-0.8182,-0.8122,-0.8095,-0.8067,-0.8051,-0.8085,-0.8078,-0.8082,-0.8082,-0.8102,-0.8102,-0.8057,-0.8057,-0.8058,0,-0.8719,-0.87,-0.8629,-0.8607,-0.8576,-0.854,-0.8512,-0.8457,-0.843,-0.837,-0.8355,-0.831,-0.827,-0.8206,-0.8154,-0.8109,-0.8091,-0.8101,-0.8084,-0.8099,-0.8091,-0.8092,-0.809,-0.8105,-0.8106,-0.8107,-0.8107,0,-0.8748,-0.8724,-0.8685,-0.8639,-0.8607,-0.8568,-0.8526,-0.8511,-0.8447,-0.8419,-0.8376,-0.8345,-0.8286,-0.8241,-0.819,-0.8155,-0.8121,-0.8114,-0.8111,-0.8125,-0.8145,-0.8134,-0.8096,-0.8113,-0.8112,-0.8112,-0.8112,-0.8111,-0.8777,-0.8758,-0.8706,-0.8665,-0.8628,-0.8591,-0.8567,-0.8525,-0.8489,-0.8436,-0.8406,-0.8364,-0.8313,-0.824,-0.8208,-0.8175,-0.8161,-0.8158,-0.8157,-0.8157,-0.8162,-0.8152,-0.8165,-0.8165,-0.8165,-0.8164,-0.8164,0,-0.8803,-0.8767,-0.8731,-0.8675,-0.8643,-0.8615,-0.8568,-0.8543,-0.8507,-0.8463,-0.8426,-0.8377,-0.8334,-0.8281,-0.8234,-0.8218,-0.8201,-0.8208,-0.8208,-0.8201,-0.8176,-0.8183,-0.8222,-0.8222,-0.8222,-0.8222,-0.8222,-0.8222,-0.8813,-0.8779,-0.875,-0.8698,-0.8662,-0.8621,-0.8597,-0.8562,-0.8527,-0.8475,-0.844,-0.8405,-0.8357,-0.8308,-0.8267,-0.8253,-0.8238,-0.8249,-0.823,-0.8207,-0.8202,-0.8197,-0.8203,-0.8246,-0.8246,-0.8257,-0.8257,-0.8257]},{"header":{"parameterUnit":"m.s-1","parameterCategory":1,"la1":30.2991,"la2":30.254,"lo1":-89.0895,"lo2":-89.0444,"dy":0.0017,"dx":0.0017,"nx":28,"ny":28,"refTime":"2023-07-27T09:00:00:Z","depth":0,"parameterNumber":3,"parameterNumberName":"V-component_of_WINDS"},"data":[0,0,0,0,0,0,0,0,0,0,0,0,0,0,0,0,0,0,0,0,0,0,0,0,0,0,0,0,0,0,0,0,0,0,0,0,0,0,0,0,0,0,0,0,0,0,0,0,0,0,0,0,0,0,0,0,0,0,2.8386,2.8386,0,2.8375,2.8374,2.8374,2.8415,2.8417,2.8418,2.8419,2.8401,2.8399,2.8398,0,0,0,0,0,0,0,0,0,0,0,0,0,2.8437,2.8436,2.8386,2.8386,2.8386,2.8375,2.8374,2.8374,2.8415,2.8417,2.8418,2.8419,2.8402,2.84,2.8398,0,0,0,0,0,0,0,0,0,0,0,0,0,2.8419,2.8436,2.8386,2.8405,2.8406,2.8375,2.8374,2.8374,2.8415,2.8417,2.8418,2.842,2.8402,2.84,2.8397,2.8345,0,0,2.839,2.8389,0,0,0,0,0,0,0,0,2.842,2.8417,2.8402,2.8403,2.8405,2.8398,2.8386,2.8364,2.8414,2.8411,2.8419,2.8421,2.8398,2.8396,2.839,2.8344,2.8343,2.839,2.8388,2.8387,2.8386,0,0,0,0,0,0,0,2.8421,2.8418,2.8381,2.8402,2.8404,2.8412,2.8411,2.8382,2.8394,2.8412,2.8415,2.8413,2.8399,2.8392,2.839,2.8343,2.839,2.8388,2.8386,2.8385,2.8254,2.8252,0,0,0,0,0,0,2.8421,2.8419,2.8382,2.8381,2.8418,2.841,2.8409,2.8398,2.8395,2.8396,2.8412,2.8415,2.8395,2.8392,2.8389,2.8328,2.8387,2.8385,2.8383,2.8256,2.8253,2.8251,0,0,0,0,0,0,2.8422,2.8417,2.8382,2.8401,2.8397,2.8407,2.8395,2.8397,2.839,2.8395,2.8396,2.8402,2.8397,2.8393,2.8356,2.8328,2.8384,2.8381,2.8258,2.8255,2.8252,2.8204,0,0,0,0,0,0,2.8423,2.8417,2.8399,2.84,2.8396,2.8351,2.8393,2.8396,2.8387,2.8391,2.8386,2.8387,2.8398,2.836,2.8354,2.8325,2.838,2.8261,2.8257,2.8253,2.8208,2.82,2.8192,0,0,0,0,0,2.8425,2.8384,2.8398,2.8393,2.8373,2.8349,2.8346,2.8361,2.8384,2.8365,2.8368,2.8387,2.8332,2.8355,2.8349,2.8319,2.8262,2.8258,2.8253,2.8211,2.8201,2.8192,0,0,0,0,0,0,2.8377,2.8385,2.84,2.8358,2.8353,2.8356,2.8332,2.8349,2.8336,2.834,2.8357,2.8356,2.8316,2.8314,2.834,2.8268,2.8301,2.8295,2.8271,2.8261,2.8254,2.8255,2.8378,0,0,0,0,0,2.8362,2.8344,2.8351,2.8313,2.831,2.8321,2.8311,2.8324,2.8318,2.8315,2.8315,2.8307,2.8288,2.8275,2.8257,2.8208,2.8207,2.8185,2.8177,2.817,2.8164,2.8138,2.8128,2.8236,2.8236,2.8236,0,0,2.833,2.8332,2.8319,2.8304,2.8301,2.828,2.8319,2.8295,2.8279,2.8311,2.8277,2.8277,2.8268,2.8226,2.8207,2.8223,2.8135,2.8164,2.8159,2.8157,2.8133,2.8122,2.8113,2.8233,2.8234,2.8234,0,0,2.8261,2.8261,2.8231,2.8228,2.8224,2.8232,2.8224,2.8225,2.8227,2.8193,2.8217,2.8197,2.8163,2.8157,2.8149,2.8079,2.8096,2.8072,2.8031,2.8005,2.7997,2.7989,2.7964,2.7954,2.8067,2.8067,2.8067,0,2.8221,2.8193,2.8212,2.8187,2.8179,2.8209,2.8178,2.8173,2.8162,2.8155,2.8174,2.8134,2.813,2.8086,2.8069,2.8062,2.8053,2.8073,2.7997,2.7989,2.7983,2.7959,2.7949,2.8064,2.8064,2.8064,2.8065,0,2.8144,2.8124,2.8099,2.8091,2.808,2.8052,2.8065,2.8052,2.8065,2.807,2.8036,2.8033,2.8016,2.8006,2.8018,2.7964,2.7974,2.7994,2.8027,2.7969,2.7947,2.7938,2.806,2.8061,2.8062,2.8062,0,0,2.8044,2.8048,2.8038,2.8035,2.8033,2.8017,2.799,2.7975,2.7963,2.7955,2.7931,2.7903,2.7922,2.7913,2.7924,2.7902,2.7846,2.7925,2.7925,2.791,2.7786,2.777,2.7759,2.7858,2.7856,2.7855,2.7786,0,2.7976,2.7932,2.7949,2.7902,2.7883,2.7911,2.7887,2.7882,2.7887,2.787,2.7874,2.7853,2.7881,2.7876,2.7855,2.7857,2.7821,2.7863,2.7835,2.7833,2.7836,2.7748,2.7731,2.7666,2.7778,2.7776,2.7775,0,2.7891,2.7882,2.7835,2.7837,2.7829,2.7808,2.7796,2.778,2.7775,2.7779,2.777,2.7786,2.7757,2.7791,2.7751,2.7779,2.7769,2.7768,2.7766,2.7763,2.78,2.7742,2.7646,2.7636,2.7762,2.7763,2.7764,0,2.7823,2.7798,2.7767,2.7763,2.7765,2.7749,2.7749,2.7746,2.7736,2.7725,2.7718,2.7703,2.7694,2.7681,2.7692,2.7716,2.765,2.7685,2.7652,2.7652,2.7636,2.7637,2.7537,2.763,2.7631,2.7631,2.7631,0,2.7745,2.7715,2.7736,2.7717,2.7683,2.7702,2.7667,2.767,2.7667,2.7647,2.767,2.7651,2.7667,2.7648,2.7656,2.7621,2.7617,2.7619,2.7621,2.7617,2.7617,2.761,2.7614,2.7628,2.7629,2.7629,2.763,0,2.7663,2.7676,2.7644,2.7649,2.7649,2.7624,2.7628,2.7609,2.7615,2.759,2.7585,2.7594,2.7574,2.7584,2.7561,2.7567,2.7522,2.7531,2.7525,2.7527,2.7494,2.7496,2.7385,2.7371,2.7474,2.7473,2.7472,0,2.7612,2.759,2.7593,2.7583,2.7582,2.7564,2.7555,2.7573,2.7562,2.7555,2.7536,2.7518,2.7505,2.747,2.7473,2.7456,2.7464,2.7426,2.7462,2.7458,2.7463,2.7464,2.7462,2.7419,2.7418,2.7417,2.7416,0,2.7521,2.7529,2.7517,2.7506,2.7495,2.7486,2.748,2.7469,2.7487,2.7473,2.7454,2.7443,2.7422,2.7403,2.7388,2.7386,2.7403,2.7405,2.7397,2.7391,2.7389,2.7389,2.7505,2.7407,2.7408,2.7409,2.7409,2.741,2.7453,2.7435,2.7435,2.7419,2.7417,2.741,2.7393,2.7399,2.7383,2.7369,2.7379,2.7356,2.7351,2.7334,2.7329,2.731,2.7325,2.7312,2.7309,2.7306,2.7301,2.7392,2.7307,2.7307,2.7308,2.7308,2.7308,0,2.7363,2.7365,2.7351,2.7342,2.733,2.735,2.7344,2.7332,2.7312,2.7307,2.7294,2.7271,2.7253,2.7256,2.7239,2.7223,2.723,2.7218,2.7219,2.7218,2.7289,2.7298,2.7212,2.7212,2.7212,2.7212,2.7212,2.7212,2.7315,2.7285,2.7293,2.7261,2.7263,2.7242,2.7237,2.7231,2.7227,2.7201,2.7188,2.719,2.7188,2.7172,2.7156,2.7157,2.7149,2.7133,2.7137,2.7203,2.7213,2.7222,2.7231,2.7132,2.7132,2.7068,2.7067,2.7067]}]]